Regional Weather Roundup
Issued by NWS

Home | Current Version | Previous Version | Text Only | Print | Product List | Glossary On
Versions: 1 2 3 4 5 6 7 8 9 10 11 12 13 14 15 16 17 18 19 20 21 22 23 24 25 26 27 28 29 30 31 32 33 34 35 36 37 38 39 40 41 42 43 44 45 46 47 48 49 50
256
ASUS44 KLIX 290305
RWRLA
LOUISIANA WEATHER ROUNDUP
NATIONAL WEATHER SERVICE NEW ORLEANS LA
900 PM CST FRI NOV 28 2014

NOTE: "FAIR" INDICATES FEW OR NO CLOUDS BELOW 12,000 FEET WITH NO
      SIGNIFICANT WEATHER AND/OR OBSTRUCTIONS TO VISIBILITY.
      SKY/WX - SKY CONDITION AND SIGNIFICANT WEATHER.
      TMP - AIR TEMPERATURE.    DP   - DEWPOINT TEMPERATURE.
      RH  - RELATIVE HUMIDITY.  PRES - PRESSURE.
      HX  - HEAT INDEX.         WCI  - WIND CHILL INDEX.

*  THESE STATIONS ARE NOT NWS OR FAA STATIONS AND ARE NOT UNDER
   NWS QUALITY CONTROL.

LAZ040-048-061>063-065-066-069-290400-
SOUTHEAST LOUISIANA

CITY           SKY/WX    TMP DP  RH WIND       PRES   REMARKS
N.O. AUDUBON     N/A     52  47  84 MISG        N/A
N.O. INTL ARPT CLEAR     50  44  80 CALM      30.29S
N.O. LAKEFRONT CLEAR     50  44  80 SE6       30.30F
N.O. DOWNTOWN* FAIR      54  43  66 SE7       30.29F
SLIDELL        CLEAR     42  37  82 CALM      30.29S
BATON ROUGE    CLEAR     49  43  80 SE5       30.26F
BOOTHVILLE     CLEAR     52  49  89 CALM      30.30F
BELLE CHASSE   PTCLDY    43  40  89 CALM      30.29F
BOGALUSA*        N/A     42  37  83 CALM      30.29F
NEW ROADS*     FAIR      50  41  71 SE8G16    30.24F
GONZALES*      FAIR      47  44  87 CALM      30.27F
HAMMOND*       CLEAR     45  41  87 CALM      30.29F
HOUMA*         CLEAR     45  44  95 E3        30.28S
PORT FOURCHON* MOCLDY    61  54  77 SE7       30.31S

$$

LAZ041-044-053-054-290400-
SOUTHWEST LOUISIANA

CITY           SKY/WX    TMP DP  RH WIND       PRES   REMARKS
LAKE CHARLES   CLEAR     52  51  97 SE6       30.20F
LAFAYETTE      CLEAR     53  47  79 S5        30.24F
PATTERSON      CLEAR     50  45  81 SE7       30.28F
SALT POINT       N/A     56  49  77 SE6       30.25F
NEW IBERIA     CLEAR     52  47  83 SE9       30.25F
CHENAULT AIRPK CLEAR     52  51  97 SE7       30.22S

$$

LAZ027-028-290400-
CENTRAL LOUISIANA

CITY           SKY/WX    TMP DP  RH WIND       PRES   REMARKS
FORT POLK      CLOUDY    55  52  90 S13       30.18F
ALEXANDRIA INT CLEAR     53  48  83 S8        30.19S
ALEXANDRIA     CLEAR     52  46  80 S7        30.20F

$$

LAZ001-002-290400-
NORTHWEST LOUISIANA

CITY           SKY/WX    TMP DP  RH WIND       PRES   REMARKS
SHREVEPORT     PTCLDY    55  49  80 S10       30.10F
BARKSDALE AFB  CLEAR     55  48  78 S13       30.11F
DTN SHREVEPORT CLEAR     56  48  74 S13       30.11F

$$

LAZ014-016-290400-
NORTHEAST LOUISIANA

CITY           SKY/WX    TMP DP  RH WIND       PRES   REMARKS
MONROE         CLEAR     50  39  66 S7        30.18S
TALLULAH       CLEAR     47  33  58 S8        30.21S

$$




USA.gov is the U.S. government's official web portal to all federal, state and local government web resources and services.